Lake Berryessa Weather Center

Moon Phase Calendar



Lake Berryessa Water Level
Online Cameras

 


      

Current Conditions in Redbud Park (historical)
10/5/2022 5:26:38 PM

88°F
Feels Like 87
Clear
Humidity
38%
Pressure
29.85"
Wind
2 mph (SSE)
Dew Point
59°F
UV Index
1/10 (Low)
Visibility
6 mi

Hourly Forecast

Date & Time Wed, Oct 5
5:00 PM
Wed, Oct 5
6:00 PM
Wed, Oct 5
7:00 PM
Wed, Oct 5
8:00 PM
Wed, Oct 5
9:00 PM
Wed, Oct 5
10:00 PM
Wed, Oct 5
11:00 PM
Thu, Oct 6
12:00 AM
Thu, Oct 6
1:00 AM
Thu, Oct 6
2:00 AM
Thu, Oct 6
3:00 AM
Thu, Oct 6
4:00 AM
Thu, Oct 6
5:00 AM
Thu, Oct 6
6:00 AM
Thu, Oct 6
7:00 AM
Thu, Oct 6
8:00 AM
Thu, Oct 6
9:00 AM
Thu, Oct 6
10:00 AM
Thu, Oct 6
11:00 AM
Thu, Oct 6
12:00 PM
Thu, Oct 6
1:00 PM
Thu, Oct 6
2:00 PM
Thu, Oct 6
3:00 PM
Thu, Oct 6
4:00 PM
Thu, Oct 6
5:00 PM
Thu, Oct 6
6:00 PM
Thu, Oct 6
7:00 PM
Thu, Oct 6
8:00 PM
Thu, Oct 6
9:00 PM
Thu, Oct 6
10:00 PM
Thu, Oct 6
11:00 PM
Fri, Oct 7
12:00 AM
Fri, Oct 7
1:00 AM
Fri, Oct 7
2:00 AM
Fri, Oct 7
3:00 AM
Fri, Oct 7
4:00 AM
Fri, Oct 7
5:00 AM
Fri, Oct 7
6:00 AM
Fri, Oct 7
7:00 AM
Fri, Oct 7
8:00 AM
Fri, Oct 7
9:00 AM
Fri, Oct 7
10:00 AM
Fri, Oct 7
11:00 AM
Fri, Oct 7
12:00 PM
Fri, Oct 7
1:00 PM
Fri, Oct 7
2:00 PM
Fri, Oct 7
3:00 PM
Fri, Oct 7
4:00 PM
Condition
Clear

Clear

Clear

Clear

Clear

Clear

Clear

Clear

Clear

Clear

Clear

Clouds

Clouds

Clouds

Clouds

Clouds

Clouds

Clouds

Clouds

Clouds

Clouds

Clouds

Clouds

Clouds

Clouds

Clouds

Clouds

Clouds

Clouds

Clouds

Clouds

Clouds

Clouds

Clouds

Clouds

Clouds

Clouds

Clouds

Clouds

Clouds

Clouds

Clouds

Clouds

Clear

Clear

Clear

Clear

Clear
Temperature 88°F87°F83°F78°F73°F68°F67°F67°F66°F66°F65°F65°F65°F65°F64°F67°F74°F80°F85°F89°F91°F93°F93°F92°F90°F83°F76°F72°F70°F69°F68°F67°F67°F66°F66°F66°F66°F66°F65°F68°F76°F83°F88°F92°F95°F96°F96°F95°F
Feels Like 87°F86°F82°F78°F72°F67°F66°F66°F65°F64°F64°F64°F63°F63°F63°F65°F73°F80°F83°F86°F88°F89°F89°F88°F86°F81°F74°F71°F69°F68°F66°F66°F65°F65°F64°F64°F64°F64°F64°F66°F75°F81°F84°F88°F91°F92°F92°F91°F
Cloudiness 0%0%0%0%0%0%0%1%3%4%5%15%27%77%76%75%73%70%67%31%40%57%67%73%78%100%100%100%100%100%98%86%88%86%89%91%92%93%54%40%33%29%25%6%7%5%4%3%
Visibility 6 mi6 mi6 mi6 mi6 mi6 mi6 mi6 mi6 mi6 mi6 mi6 mi6 mi6 mi6 mi6 mi6 mi6 mi6 mi6 mi6 mi6 mi6 mi6 mi6 mi6 mi6 mi6 mi6 mi6 mi6 mi6 mi6 mi6 mi6 mi6 mi6 mi6 mi6 mi6 mi6 mi6 mi6 mi6 mi6 mi6 mi6 mi6 mi
Precipitation 0%0%0%0%0%0%0%0%0%0%0%0%0%0%0%0%0%0%0%0%0%0%0%0%0%0%0%0%0%0%0%0%0%0%0%0%0%0%0%0%0%0%0%0%0%0%0%0%
Humidity 38%36%40%46%51%56%56%55%54%54%55%55%55%55%57%53%43%35%30%24%21%19%18%19%21%28%35%40%43%46%47%47%46%46%45%44%43%43%44%41%32%25%21%18%16%15%14%14%
Dew Point 59°F57°F56°F56°F54°F50°F49°F49°F48°F47°F47°F47°F47°F47°F47°F48°F48°F49°F49°F47°F45°F44°F43°F42°F43°F45°F45°F45°F46°F46°F45°F45°F44°F43°F42°F42°F42°F42°F41°F42°F43°F43°F43°F42°F41°F40°F39°F38°F
Pressure 29.85"29.85"29.88"29.91"29.94"29.97"29.97"29.97"29.97"29.97"30"29.97"30"30"30.03"30.03"30.03"30.03"30.03"30.03"30"29.97"29.94"29.94"29.94"29.97"29.97"30"30"30.03"30.03"30.03"30.03"30.03"30.03"30.03"30.03"30.03"30.06"30.06"30.06"30.06"30.03"30.03"30"29.97"29.94"29.94"
Wind Speed 4 mph4 mph4.1 mph3.6 mph3.6 mph3.7 mph3.3 mph3.2 mph2.8 mph2.5 mph2.1 mph2.6 mph3 mph3.2 mph2.7 mph2.4 mph1.8 mph1.9 mph2.4 mph2.7 mph3.1 mph3.4 mph4.2 mph4.9 mph5.1 mph3.8 mph3.4 mph3.4 mph3.6 mph3.7 mph3.5 mph3.5 mph3.4 mph3 mph3 mph3 mph3 mph2.9 mph3.2 mph3 mph2.3 mph1.9 mph1.8 mph1.9 mph1.7 mph2.3 mph3.7 mph5.9 mph
Wind
Direction
187°
S
190°
S
207°
SSW
234°
SW
254°
WSW
267°
W
281°
W
283°
WNW
282°
WNW
277°
W
309°
NW
322°
NW
331°
NNW

N

N

N
23°
NNE
55°
NE
75°
ENE
100°
E
119°
ESE
143°
SE
172°
S
190°
S
203°
SSW
203°
SSW
220°
SW
243°
WSW
260°
W
272°
W
278°
W
276°
W
281°
W
287°
WNW
296°
WNW
315°
NW
340°
NNW
350°
N
348°
NNW
348°
NNW
10°
N
32°
NNE
55°
NE
79°
E
113°
ESE
159°
SSE
188°
S
206°
SSW

Daily Forecast

Date High Low Precip. Humidity
Today
Oct 5

Clear
90 °F
62 °F
0%
30%
Thursday
Oct 6

Clouds
93 °F
64 °F
0%
24%
Friday
Oct 7

Clouds
96 °F
66 °F
0%
21%
Saturday
Oct 8

Clear
96 °F
67 °F
0%
19%
Sunday
Oct 9

Clear
95 °F
65 °F
0%
15%
Monday
Oct 10

Clear
92 °F
58 °F
0%
16%
Tuesday
Oct 11

Clouds
76 °F
51 °F
0%
50%
Wednesday
Oct 12

Clouds
61 °F
47 °F
29%
59%
Thursday
Oct 13

Clouds
71 °F
47 °F
0%
45%
Friday
Oct 14

Clouds
73 °F
49 °F
0%
42%
Saturday
Oct 15

Clear
76 °F
52 °F
0%
32%
Sunday
Oct 16

Clouds
81 °F
54 °F
0%
26%
Monday
Oct 17

Clear
83 °F
56 °F
0%
27%
Tuesday
Oct 18

Clear
85 °F
60 °F
0%
28%
Wednesday
Oct 19

Clear
87 °F
62 °F
0%
23%
Thursday
Oct 20

Clear
90 °F
64 °F
0%
20%

Temperature 8-14 Day Outlook



Precipitation 8-14 Day Outlook




Quick Links
Lake Berryessa News
Lake Berryessa Photos
Lake Berryessa Videos




About Us
Contact Us
Site Map
Search Site
Advertise With Us
   
Berryessa.USLakes.info
THE LAKE BERRYESSA WEBSITE

Copyright 2022, Lakes Online
Privacy    |    Legal